TUI78T LDSP-EDDM

Flight info

Callsign TUI78T
Flight time N/A
Altitude 36000
Route ZDA DCT ROPUS DCT RASTA DCT REDBU Q112 NAPSA NAPSA4A
Aircraft B738/M-SDE2E3FGHIRWXY/LB1

Departure

Time 2026-04-28 20:40
Airport Split Saint Jerome Airport (LDSP)

Arrival

Time N/A
Airport Munich Airport (EDDM)
Time Latitude Longitude Altitude Speed Heading
2026-04-28 20:01 43.53693 16.29806 67 ft 0 kts 113°
2026-04-28 20:33 43.53702 16.29817 58 ft 4 kts 25°
2026-04-28 20:33 43.53730 16.29790 63 ft 6 kts 293°
2026-04-28 20:34 43.53724 16.29737 67 ft 6 kts 235°
2026-04-28 20:34 43.53696 16.29694 63 ft 6 kts 237°
2026-04-28 20:34 43.53687 16.29638 65 ft 6 kts 266°
2026-04-28 20:34 43.53693 16.29563 68 ft 14 kts 278°
2026-04-28 20:35 43.53654 16.29367 82 ft 31 kts 236°
2026-04-28 20:35 43.53510 16.29101 86 ft 34 kts 232°
2026-04-28 20:35 43.53371 16.28854 89 ft 31 kts 232°
2026-04-28 20:35 43.53257 16.28656 83 ft 18 kts 223°
2026-04-28 20:36 43.53207 16.28621 85 ft 6 kts 209°
2026-04-28 20:36 43.53205 16.28579 86 ft 2 kts 331°
2026-04-28 20:36 43.53219 16.28588 85 ft 0 kts 50°
2026-04-28 20:39 43.53240 16.28625 86 ft 27 kts 51°
2026-04-28 20:39 43.53514 16.29112 88 ft 100 kts 52°
2026-04-28 20:39 43.54072 16.30114 98 ft 158 kts 52°
2026-04-28 20:40 43.54761 16.31381 567 ft 177 kts 54°
2026-04-28 20:40 43.55342 16.32915 1271 ft 186 kts 83°
2026-04-28 20:40 43.55021 16.34619 2008 ft 190 kts 124°
2026-04-28 20:40 43.54054 16.35873 2752 ft 193 kts 147°
2026-04-28 20:41 43.52873 16.36779 3494 ft 198 kts 152°
2026-04-28 20:41 43.51583 16.37699 3814 ft 217 kts 152°
2026-04-28 20:41 43.50175 16.38562 4237 ft 227 kts 168°
2026-04-28 20:41 43.48607 16.38241 4652 ft 237 kts 211°
2026-04-28 20:42 43.47516 16.36568 5248 ft 240 kts 247°
2026-04-28 20:42 43.47211 16.34329 6010 ft 241 kts 274°
2026-04-28 20:42 43.47691 16.32090 6419 ft 259 kts 303°
2026-04-28 20:42 43.48993 16.30299 7041 ft 267 kts 326°
2026-04-28 20:43 43.50605 16.29004 7841 ft 270 kts 330°
2026-04-28 20:43 43.52265 16.27778 8738 ft 272 kts 330°
2026-04-28 20:43 43.53924 16.26565 9673 ft 275 kts 330°
2026-04-28 20:43 43.55641 16.25298 10540 ft 280 kts 330°
2026-04-28 20:44 43.57419 16.23968 10983 ft 305 kts 330°
2026-04-28 20:44 43.59377 16.22488 11224 ft 336 kts 330°
2026-04-28 20:44 43.61478 16.20886 11796 ft 351 kts 329°
2026-04-28 20:44 43.63636 16.19234 12710 ft 356 kts 329°
2026-04-28 20:45 43.65812 16.17560 13699 ft 360 kts 329°
2026-04-28 20:45 43.67979 16.15886 14530 ft 364 kts 329°
2026-04-28 20:45 43.70196 16.14168 15359 ft 367 kts 329°
2026-04-28 20:45 43.72429 16.12434 16164 ft 370 kts 328°
2026-04-28 20:46 43.74683 16.10680 16930 ft 374 kts 328°
2026-04-28 20:46 43.76960 16.08906 17697 ft 377 kts 328°
2026-04-28 20:46 43.79256 16.07115 18426 ft 381 kts 328°
2026-04-28 20:46 43.81574 16.05304 19055 ft 384 kts 328°
2026-04-28 20:47 43.83900 16.03487 19702 ft 386 kts 328°
2026-04-28 20:47 43.86242 16.01655 20329 ft 388 kts 328°
2026-04-28 20:47 43.88594 15.99813 20944 ft 390 kts 328°
2026-04-28 20:47 43.90967 15.97954 21503 ft 393 kts 328°
2026-04-28 20:48 43.93355 15.96081 22051 ft 396 kts 328°
2026-04-28 20:48 43.95757 15.94194 22608 ft 398 kts 328°
2026-04-28 20:48 43.97390 15.92911 22953 ft 400 kts 327°
2026-04-28 20:48 43.99606 15.91168 23439 ft 402 kts 327°
2026-04-28 20:49 44.02049 15.89245 23880 ft 405 kts 327°
2026-04-28 20:49 44.04505 15.87310 24283 ft 407 kts 327°
2026-04-28 20:49 44.06974 15.85363 24686 ft 409 kts 327°
2026-04-28 20:49 44.09456 15.83404 25106 ft 411 kts 327°
2026-04-28 20:50 44.11946 15.81437 25549 ft 413 kts 327°
2026-04-28 20:50 44.14451 15.79456 25933 ft 415 kts 327°
2026-04-28 20:50 44.16971 15.77460 26279 ft 418 kts 327°
2026-04-28 20:50 44.19511 15.75447 26612 ft 422 kts 327°
2026-04-28 20:51 44.22066 15.73420 26978 ft 424 kts 327°
2026-04-28 20:51 44.24634 15.71380 27353 ft 426 kts 327°
2026-04-28 20:51 44.27214 15.69330 27715 ft 428 kts 327°
2026-04-28 20:51 44.28929 15.67965 27948 ft 429 kts 327°
2026-04-28 20:52 44.32403 15.65200 28519 ft 430 kts 327°
2026-04-28 20:52 44.35004 15.63127 28904 ft 431 kts 327°
2026-04-28 20:52 44.37611 15.61046 29192 ft 433 kts 327°
2026-04-28 20:52 44.40235 15.58949 29560 ft 434 kts 327°
2026-04-28 20:53 44.45461 15.54769 30312 ft 434 kts 327°
2026-04-28 20:53 44.48086 15.52664 30532 ft 436 kts 327°
2026-04-28 20:53 44.50726 15.50545 30776 ft 438 kts 327°
2026-04-28 20:54 44.53369 15.48422 31037 ft 437 kts 327°
2026-04-28 20:54 44.56005 15.46304 31283 ft 437 kts 327°
2026-04-28 20:54 44.58636 15.44187 31673 ft 433 kts 327°
2026-04-28 20:54 44.61231 15.42098 32268 ft 426 kts 327°
2026-04-28 20:55 44.63764 15.40114 32863 ft 420 kts 328°
2026-04-28 20:55 44.66333 15.38185 33278 ft 418 kts 329°
2026-04-28 20:55 44.68932 15.36224 33590 ft 418 kts 328°
2026-04-28 20:55 44.71482 15.34259 33865 ft 419 kts 328°
2026-04-28 20:56 44.74020 15.32260 34197 ft 418 kts 327°
2026-04-28 20:56 44.76537 15.30246 34571 ft 414 kts 327°
2026-04-28 20:56 44.79033 15.28227 34829 ft 414 kts 327°
2026-04-28 20:56 44.81502 15.26216 35000 ft 416 kts 327°
2026-04-28 20:57 44.84008 15.24167 35215 ft 417 kts 326°
2026-04-28 20:57 44.86517 15.22113 35459 ft 417 kts 326°
2026-04-28 20:57 44.89022 15.20059 35717 ft 416 kts 326°
2026-04-28 20:57 44.91523 15.18008 35950 ft 417 kts 326°
2026-04-28 20:58 44.94034 15.15947 36122 ft 418 kts 326°
2026-04-28 20:58 44.96555 15.13874 36136 ft 421 kts 326°
2026-04-28 20:58 45.01604 15.09722 36128 ft 418 kts 326°
2026-04-28 20:59 45.06595 15.05611 36124 ft 413 kts 326°
2026-04-28 20:59 45.11549 15.01519 36126 ft 412 kts 326°
2026-04-28 21:00 45.16487 14.97431 36113 ft 411 kts 326°
2026-04-28 21:00 45.21422 14.93338 36115 ft 411 kts 326°
2026-04-28 21:01 45.26357 14.89236 36105 ft 411 kts 326°
2026-04-28 21:01 45.31292 14.85127 36112 ft 411 kts 326°
2026-04-28 21:02 45.36227 14.81009 36104 ft 411 kts 326°
2026-04-28 21:02 45.41164 14.76881 36136 ft 412 kts 326°
2026-04-28 21:03 45.46113 14.72734 36126 ft 413 kts 326°
2026-04-28 21:03 45.50236 14.69274 36135 ft 414 kts 326°
2026-04-28 21:04 45.55206 14.65094 36145 ft 414 kts 326°
2026-04-28 21:04 45.60169 14.60912 36140 ft 414 kts 326°
2026-04-28 21:05 45.65130 14.56723 36162 ft 414 kts 325°
2026-04-28 21:05 45.70077 14.52536 36148 ft 413 kts 325°
2026-04-28 21:06 45.75021 14.48344 36146 ft 412 kts 325°
2026-04-28 21:06 45.79950 14.44155 36136 ft 411 kts 325°
2026-04-28 21:07 45.84870 14.39965 36145 ft 411 kts 325°
2026-04-28 21:07 45.89777 14.35778 36149 ft 410 kts 325°
2026-04-28 21:08 45.94682 14.31583 36141 ft 410 kts 325°
2026-04-28 21:08 45.99579 14.27386 36146 ft 410 kts 325°
2026-04-28 21:09 46.04478 14.23180 36151 ft 410 kts 325°
2026-04-28 21:09 46.09410 14.19029 36182 ft 413 kts 329°
2026-04-28 21:10 46.14778 14.15911 36148 ft 417 kts 334°
2026-04-28 21:10 46.20189 14.12922 36167 ft 416 kts 334°
2026-04-28 21:11 46.25590 14.09905 36151 ft 415 kts 334°
2026-04-28 21:11 46.30973 14.06868 36194 ft 416 kts 333°
2026-04-28 21:12 46.36319 14.03836 36167 ft 414 kts 333°
2026-04-28 21:12 46.41678 14.00790 36171 ft 414 kts 333°
2026-04-28 21:13 46.47034 13.97739 36176 ft 413 kts 333°
2026-04-28 21:13 46.52390 13.94682 36164 ft 414 kts 333°
2026-04-28 21:14 46.57748 13.91617 36171 ft 414 kts 333°
2026-04-28 21:14 46.63102 13.88549 36166 ft 413 kts 333°
2026-04-28 21:15 46.68449 13.85478 36155 ft 413 kts 333°